Location: Beadle
(51.4667°N, 109.0000°W)
Time: 05:59:19
(UTC+00:00)

Envisat - Pass Details

Date: 26 January 2022
Orbit: 764 x 765 km, 98.2° (Epoch: 25 May)

Event Time Altitude Azimuth Distance (km) Brightness Sun altitude
Rises 12:35:49 0° 13° (NNE) 3,245 6.4 -22.6°
Reaches altitude 10° 12:38:08 10° 12° (NNE) 2,314 5.6 -22.3°
Maximum altitude 12:43:13 74° 288° (WNW) 800 2.8 -21.5°
Drops below altitude 10° 12:48:17 10° 204° (SSW) 2,298 5.3 -20.7°
Sets 12:50:34 0° 203° (SSW) 3,221 6.1 -20.3°
